www.pogodaiklimat.ru

Погода и климат >> Архив погоды >> Индия >> Surat


ПОГОДА в Surat

  • Прогноз погоды в Surat
  • Монитор погоды в Surat
  • Климат города

АРХИВ ПОГОДЫ в Surat

Время (UTC), дата Ветер
(напр.,м/с)
 
Видим.   Явления Облачность Т
(С)
Тd
(С)
f
(%)
Тe
(С)
Тes
(С)
Комфортность P
(гПа)
Po
(гПа)
Тmin
(С)
Tmax
(С)
R
(мм)
R24
(мм)
S
(см)
00 14.05 штиль 0 4000 м ясно +29.0 +27.3 91 +47 +47 опасность
перегрева
1006.9 1007.0
03 14.05 ЮЗ 1 4000 м 3/3 750 м
[Sc]
+31.0 +26.3 76 +47 +52 опасность
перегрева
1009.9 1010.0 +28.4
06 14.05 ЮЗ 2 4000 м ясно +35.0 +24.9 56 +48 +69 опасность
перегрева
1009.9 1010.0
09 14.05 ЮЗ 2 4000 м ясно +34.6 +24.7 57 +48 +66 опасность
перегрева
1007.2 1007.0
12 14.05 ЮЗ 3 4000 м ясно +32.6 +25.9 68 +48 +51 опасность
перегрева
1005.5 1006.0 +35.6
15 14.05 ЮЗ 2 4000 м ясно +30.2 +26.6 81 +47 +47 опасность
перегрева
1006.1 1006.0
18 14.05 ЮЗ 2 4000 м ясно +29.8 +26.2 81 +45 +45 опасность
перегрева
1007.1 1007.0
21 14.05 штиль 0 4000 м ясно +29.4 +26.6 85 +45 +45 опасность
перегрева
1006.4 1006.0
00 15.05 штиль 0 4000 м ясно +29.2 +26.7 86 +45 +45 опасность
перегрева
1006.6 1007.0
03 15.05 ЮЗ 1 4000 м ясно +31.4 +24.6 67 +44 +51 опасность
перегрева
1008.3 1008.0 +28.9
06 15.05 Ю 2 4000 м ясно +35.2 +22.1 47 +44 +66 опасность
перегрева
1008.3 1008.0
09 15.05 ЮЗ 3 4000 м ясно +35.4 +23.0 49 +45 +60 опасность
перегрева
1007.0 1007.0
12 15.05 ЮЗ 3 4000 м ясно +33.0 +24.5 61 +46 +48 опасность
перегрева
1005.1 1005.0 +35.6
15 15.05 ЮЗ 2 4000 м ясно +30.6 +26.1 77 +46 +46 опасность
перегрева
1005.9 1006.0
18 15.05 ЮЗ 2 4000 м ясно +30.0 +26.9 84 +47 +47 опасность
перегрева
1006.2 1006.0
21 15.05 ЮЗ 1 4000 м ясно +30.0 +27.8 88 +49 +49 опасность
перегрева
1005.4 1005.0
00 16.05 штиль 0 4000 м ясно +29.0 +27.1 90 +46 +46 опасность
перегрева
1005.4 1005.0
03 16.05 ЮЗ 1 4000 м ясно +30.6 +26.1 77 +46 +54 опасность
перегрева
1007.5 1008.0 +28.6
06 16.05 ЮЗ 1 4000 м ясно +34.8 +26.8 63 +52 +76 опасность
перегрева
1008.3 1008.0
09 16.05 штиль 0 4000 м ясно +36.4 +23.9 49 +48 +72 опасность
перегрева
1005.5 1006.0
12 16.05 Ю 1 4000 м ясно +33.6 +25.5 63 +48 +52 опасность
перегрева
1003.8 1004.0 +36.4
15 16.05 ЮЗ 2 4000 м 4/0
[Ci fib]
+30.4 +26.5 80 +47 +47 опасность
перегрева
1004.2 1004.0
18 16.05 ЮЗ 2 4000 м ясно +30.0 +27.5 86 +48 +48 опасность
перегрева
1005.0 1005.0
21 16.05 ЮЗ 2 4000 м 4/4 750 м
[Sc]
+29.8 +27.9 90 +49 +49 опасность
перегрева
1004.7 1005.0
00 17.05 штиль 0 4000 м ясно +29.4 +28.0 92 +49 +49 опасность
перегрева
1005.0 1005.0
03 17.05 ЮЗ 1 4000 м 3/3 750 м
[Sc]
+31.6 +27.5 79 +51 +56 опасность
перегрева
1006.9 1007.0 +29.3
06 17.05 ЮЗ 2 4000 м 3/3 750 м
[Sc]
+34.8 +26.2 61 +51 +66 опасность
перегрева
1007.1 1007.0
09 17.05 ЮЗ 1 4000 м ясно +37.2 +26.8 55 +54 +75 опасность
перегрева
1005.4 1005.0
12 17.05 Ю 2 4000 м ясно +35.2 +26.0 59 +51 +54 опасность
перегрева
1002.6 1003.0 +38.6
15 17.05 ЮЗ 2 4000 м ясно +31.4 +25.2 70 +45 +45 опасность
перегрева
1003.9 1004.0
18 17.05 З 1 4000 м ясно +30.8 +27.2 81 +49 +49 опасность
перегрева
1004.8 1005.0
21 17.05 Ю 3 4000 м 4/4 750 м
[Sc]
+30.0 +27.8 88 +49 +49 опасность
перегрева
1004.8 1005.0
00 18.05 Ю 2 4000 м 4/4 750 м
[Sc]
+30.0 +27.2 85 +48 +48 опасность
перегрева
1005.6 1006.0
03 18.05 ЮЗ 2 4000 м 5/5 600 м
[Cu Sc]
+31.4 +27.0 78 +49 +53 опасность
перегрева
1007.6 1008.0 +25.0
06 18.05 Ю 2 4000 м 5/5 750 м
[Cu Sc]
+33.4 +26.2 66 +50 +60 опасность
перегрева
1008.1 1008.0
09 18.05 ЮЗ 2 4000 м ясно +34.6 +26.0 61 +50 +70 опасность
перегрева
1006.1 1006.0
12 18.05 ЮЗ 2 4000 м 3/3 750 м
[Sc]
+32.8 +27.0 72 +51 +53 опасность
перегрева
1004.5 1005.0 +35.0
15 18.05 ЮЗ 1 4000 м ясно +30.6 +26.7 80 +48 +48 опасность
перегрева
1005.0 1005.0
18 18.05 ЮЗ 2 4000 м ясно +30.4 +26.5 80 +47 +47 опасность
перегрева
1005.0 1005.0
21 18.05 ЮЗ 1 4000 м ясно +29.6 +26.8 85 +46 +46 опасность
перегрева
1004.8 1005.0
00 19.05 ЮЗ 1 4000 м 3/3 750 м
[Sc]
+29.0 +26.8 88 +45 +45 опасность
перегрева
1005.2 1005.0
03 19.05 Ю 2 4000 м 5/5 750 м
[Cu Sc]
+30.4 +26.5 80 +47 +50 опасность
перегрева
1006.6 1007.0 +28.8
06 19.05 ЮЗ 2 4000 м 3/3 750 м
[Sc]
+33.2 +26.0 66 +49 +64 опасность
перегрева
1007.0 1007.0
09 19.05 Ю 2 4000 м ясно +34.6 +25.4 59 +49 +68 опасность
перегрева
1005.0 1005.0
12 19.05 ЮЗ 2 4000 м 3/3 750 м
[Sc]
+32.6 +27.1 73 +51 +53 опасность
перегрева
1003.8 1004.0 +34.8
15 19.05 Ю 2 4000 м 3/3 750 м
[Sc]
+30.4 +27.1 83 +48 +48 опасность
перегрева
1004.3 1004.0
18 19.05 Ю 2 4000 м 4/4 750 м
[Sc]
+30.2 +26.6 81 +47 +47 опасность
перегрева
1005.4 1005.0
21 19.05 ЮЗ 2 4000 м 3/3 750 м
[Sc]
+29.6 +26.5 83 +45 +45 опасность
перегрева
1004.7 1005.0
00 20.05 ЮЗ 1 4000 м 3/3 750 м
[Sc]
+29.0 +26.8 88 +45 +45 опасность
перегрева
1005.0 1005.0
03 20.05 ЮЗ 2 4000 м 3/3 750 м
[Sc]
+30.8 +26.3 77 +47 +52 опасность
перегрева
1006.6 1007.0 +28.8
06 20.05 Ю 2 4000 м ясно +33.6 +24.9 60 +47 +69 опасность
перегрева
1007.0 1007.0
09 20.05 ЮЗ 3 4000 м ясно +35.6 +24.3 52 +48 +64 опасность
перегрева
1005.0 1005.0
12 20.05 ЮЗ 3 4000 м ясно +33.0 +26.6 69 +50 +53 опасность
перегрева
1004.0 1004.0 +35.6
15 20.05 ЮЗ 4 4000 м 3/3 750 м
[Sc]
+30.6 +26.1 77 +46 +46 опасность
перегрева
1005.4 1005.0
18 20.05 ЮЗ 4 4000 м 3/3 750 м
[Sc]
+30.2 +26.0 78 +45 +45 опасность
перегрева
1006.1 1006.0

 

Местоположение метеостанции Surat (Gujarat, Индия): широта 21.20 долгота 72.83 высота над уровнем моря 12 м.

В архиве по умолчанию представлена погода в Surat за последнюю неделю. Архивные данные за месяц целиком и за предыдущие месяцы, начиная с января 2011 года, Вы можете получить, выбрав интересующий диапазон дат из раскрывающегося списка и нажав кнопку "Ввод!".


*Определитесь, кто Вы:
робот инопланетянин человек

Внимание! Время в таблицах - всемирное. Для получения местного времени необходимо прибавить поправку, которая в Surat равна 5.5 ч.

Смотрите также архив погоды в соседних городах и на ближайших метеорологических станциях:

Погода в Valsad (Gujarat, Индия) (65 км)
Погода в Bhaunagar (Gujarat, Индия) (89 км)
Погода в Mahuva (Gujarat, Индия) (110 км)
Погода в Baroda (Gujarat, Индия) (134 км)
Погода в Dahanu (Maharashtra, Индия) (137 км)
Погода в Nandurbar (Maharashtra, Индия) (148 км)
Погода в Vallabh Vidyanagar (Gujarat, Индия) (153 км)
Погода в Nashik (Maharashtra, Индия) (166 км)
Погода в Amreli (Gujarat, Индия) (173 км)
Погода в Malegaon (Maharashtra, Индия) (191 км)

Пояснения к столбцам:

Ветер - указаны скорость ветра в м/с - средняя за 10 мин, порывы в срок и между сроками (в фигурных скобках) и направление, откуда дует ветер: С - северный, СВ - северо-восточный, В - восточный, ЮВ - юго-восточный, Ю - южный, ЮЗ - юго-западный, З - западный, СЗ - северо-западный.
Видимость - горизонтальная дальность видимости в метрах или километрах. При видимости от 1 до 10 км при отсутствии осадков обычно наблюдается дымка, при ухудшении видимости до 1 км и менее - туман. В сухую погоду видимость может ухудшаться дымом, пылью или мглою.
Явления - указаны атмосферные явления, наблюдавшиеся в срок или в последний час перед сроком; фигурными скобками обозначены явления, наблюдавшиеся между сроками (за 1-3 часа до срока); квадратными скобками обозначены град или гололедные отложения с указанием их диаметра в мм.
Облачность - указаны через наклонную черту общая и нижняя облачность в баллах и высота нижней границы облаков в метрах; квадратными скобками обозначены формы облаков: Ci - перистые, Cs - перисто-слоистые, Cc - перисто-кучевые, Ac - высококучевые, As - высокослоистые, Sc - слоисто-кучевые, Ns - слоисто-дождевые, Cu - кучевые, Cb - кучево-дождевые. Подробнее классификацию облаков см. в Атласе облаков (PDF).
T - Температура воздуха - температура, измеренная на высоте 2 м над землей.
Td - Температура точки росы - температура, при понижении до которой содержащийся в воздухе водяной пар достигнет насыщения.
f - Относительная влажность воздуха - влажноcть воздуха, измеренная на высоте 2 м над землей.
Te - Эффективная температура - температура, которую ощущает одетый по сезону человек в тени. Характеристика душности погоды. При расчете учитывается влияние влажности воздуха и скорости ветра на теплоощущения человека.
Tes - Эффективная температура на солнце - температура, которую ощущает человек, с поправкой на солнечный нагрев. Характеристика знойности погоды. Зависит от высоты солнца над горизонтом, облачности и скорости ветра. Ночью, в пасмурную погоду, а также при ветре 12 м/с и более поправка равна нулю.
P - Атмосферное давление - приведенное к уровню моря атмосферное давление.
Po - Атмосферное давление - измеренное на уровне метеостанции атмосферное давление.
Tmin - Минимальная температура - минимум температуры воздуха на высоте 2 м над землей.
Tmax - Максимальная температура - максимум температуры воздуха на высоте 2 м над землей.
R - Количество осадков - Количество выпавших осадков за период времени, мм. При наведении курсора мыши на число - период времени, за который выпало указанное количество осадков.
R24 - Количество осадков - Количество выпавших осадков за 24 часа, мм.
S - Снежный покров - Высота снежного покрова, см. При наведении курсора мыши на число - состояние снежного покрова и степень покрытия местности в баллах.